Simultaneous Nadir Overpasses (SNOs) Predictions

Prediction of SNOs between LANDSAT-8 and NOAA-19 Satellite Orbit:

Table of predicted SNOs for the next 14.0 days since TLE Epoch: 11/13/2021
Index Date (LANDSAT-8) Time (LANDSAT-8) Lat,Lon (LANDSAT-8) SZA (LANDSAT-8 ) Date (NOAA-19) Time (NOAA-19) Lat,Lon (NOAA-19) SZA (NOAA-19 ) Distance(km) Time Diff (sec)
1 11/13/2021 20:30:49 -80.59, 85.46 79.45 11/13/2021 20:30:59 -80.60, 85.34 79.45 2.31 10
2 11/16/2021 02:04:32 80.58,-178.06 101.10 11/16/2021 02:04:03 80.60,-178.02 101.11 2.66 29
3 11/16/2021 02:53:59 -80.58, -10.44 78.90 11/16/2021 02:55:04 -80.59, -10.47 78.87 1.48 65
4 11/18/2021 07:38:15 -80.59, -81.34 78.35 11/18/2021 07:37:10 -80.60, -81.23 78.36 2.24 65
5 11/18/2021 08:27:41 80.60, 86.31 101.67 11/18/2021 08:28:07 80.59, 86.29 101.67 0.47 26
6 11/20/2021 14:01:24 -80.61,-176.96 77.82 11/20/2021 14:01:15 -80.60,-177.09 77.84 2.50 9
7 11/22/2021 19:35:06 80.62, -80.29 102.67 11/22/2021 19:34:17 80.61, -80.39 102.63 2.37 49
8 11/22/2021 20:24:34 -80.59, 87.06 77.37 11/22/2021 20:25:20 -80.60, 87.02 77.35 0.97 46



Historial Predications of SNOs between LANDSAT-8 and NOAA-19
